Meath Environmental Platform

Observations for Trim Market St

Time AQI Temp °C Hum % Pres Pa CO μg/m³ H₂S μg/m³ NO μg/m³ NO₂ μg/m³ O₃ μg/m³ SO₂ μg/m³ PM1 μg/m³ PM2.5 μg/m³ PM10 μg/m³
Wednesday 26 August 2026
01:17 2 16.6 85 2,147,483,647 0.33 0 1.44 14.77 31.87 0 5.7 6.27 9.69
01:16 2 16.6 85 2,147,483,647 0.33 0 1.3 14.92 33.67 0 6.41 8.4 13.46
01:15 2 16.6 85 2,147,483,647 0.33 0 1.49 14.77 33.36 0 5.7 6.27 9.15
01:14 2 16.6 85 2,147,483,647 0.33 0 1.45 15.6 32.05 0 5.7 7.01 11.84
01:13 2 16.6 85 2,147,483,647 0.33 0 1.46 15.41 31.92 0 4.28 6.08 9.69
01:12 2 16.6 85 2,147,483,647 0.33 0 1.44 15.25 33.81 0 6.41 7.01 10.77
01:11 2 16.6 85 2,147,483,647 0.33 0 1.37 17.77 34.63 0 5.7 6.08 9.69
01:10 2 16.6 85 2,147,483,647 0.33 0 1.31 15.08 31.67 0 7.13 7.84 10.77
01:09 2 16.6 85 2,147,483,647 0.33 0 1.35 15.59 30.83 0 5.7 6.55 10.23
01:08 2 16.5 85 2,147,483,647 0.33 0 1.32 14.63 30.95 0 5.7 7.48 11.85
01:07 2 16.5 85 2,147,483,647 0.34 0 1.28 17.3 31.45 0 5.7 7.48 11.85
01:06 2 16.5 85 2,147,483,647 0.32 0 1.33 14.63 41.57 0 7.13 7.48 11.85
01:04 2 16.5 85 2,147,483,647 0.32 0 1.2 17.62 32.11 0 5.7 6.08 9.69
01:03 2 16.5 85 2,147,483,647 0.33 0 1.26 16.96 31.84 0 5.7 7.94 11.85
01:02 2 16.5 85 2,147,483,647 0.32 0 1.28 15.56 32.05 0 5.7 8.41 12.39
00:56 2 16.5 85 2,147,483,647 0.32 0 1.23 15.24 30.84 0 5.7 7.48 11.31
00:49 2 16.5 85 2,147,483,647 0.3 0 1.51 15.55 34.66 0 5.7 6.09 10.23
00:48 2 16.5 84 2,147,483,647 0.32 0 1.39 21.62 38.38 0 6.41 7.49 11.32
00:47 2 16.5 85 2,147,483,647 0.32 0 1.83 14.62 33.11 0 6.41 7.48 11.31
00:46 2 16.5 85 2,147,483,647 0.31 0 1.72 16.32 29.54 0 5.7 7.48 13.47